Tracking 25734 objects as of 28-May-2022
HD Live streaming from Space Station
objects crossing your sky now

TITAN 3C TRANSTAGE R/B

Track TITAN 3C TRANSTAGE R/B now!


NORAD ID: 8751
Int'l Code: 1976-023F
Perigee: 35,814.4 km
Apogee: 36,882.4 km
Inclination: 18.7 °
Period: 1,464.5 minutes
Semi major axis: 42719 km
RCS: 2.1664 m2 (large)
Launch date: March 15, 1976
Source: United States (US)
Launch site: AIR FORCE EASTERN TEST RANGE (AFETR)

Note: This is a ROCKET BODY
aabbcc
Your satellite tracking list
Your tracking list is empty




NASA's NSSDC Master Catalog

Two Line Element Set (TLE):
1 08751U 76023F   22146.60409285 -.00000137  00000-0  00000-0 0  9990
2 08751  18.6975  61.6550 0125003  60.0623  76.7510  0.98325214168634
Source of the keplerian elements: AFSPC